Location: Leuk
(46.3174°N, 7.6341°E)
Time: 13:41:53
(UTC+00:00)

Cosmos 2082 Rocket - Pass Details

Date: 09 March 2021
Orbit: 834 x 853 km, 71.0° (Epoch: 15 April)

Event Time Altitude Azimuth Distance (km) Brightness Sun altitude
Exits shadow 02:42:10 21° 344° (NNW) 1,831 4.0 -32.6°
Drops below altitude 10° 02:44:48 10° 8° (N) 2,487 5.0 -32.2°
Sets 02:47:42 0° 21° (NNE) 3,423 6.1 -31.8°
